Temp
32 33 32 31 30 29 29 28 27 26 26 25 24 24 24 24 23 23 22 24 25 25 25 25 24 24 23 23 23 23 23 23 23 23 23 22 22 22 21 21 21 22 22 21 22 22 23 22 21 20 21 22 22 22 21 21 21 21 21 20 20 20 20
32 33 33 31 30 29 29 28 27 26 26 25 25 24 24 24 24 23 23 24 25 26 26 25 25 25 24 24 24 23 24 24 23 23 23 23 23 23 22 22 21 22 22 22 21 21 22 22 22 22 22 22 23 22 21 21 21 21 21 21 20 20 20
33 33 33 32 31 30 29 28 27 26 26 26 25 25 24 24 24 24 24 24 25 26 26 26 25 25 25 24 24 24 24 24 24 24 23 23 23 23 23 22 22 22 22 23 22 21 21 22 23 23 22 22 23 22 22 21 21 21 21 21 20 20 20
33 34 34 32 31 30 29 29 27 27 26 26 25 25 25 24 24 24 24 25 25 26 26 26 26 25 25 25 24 24 24 24 24 24 24 24 23 23 23 23 23 23 23 23 23 22 21 21 22 23 23 22 22 22 22 22 21 21 21 21 21 20 20
34 34 34 33 32 31 30 29 28 27 27 27 26 25 25 24 24 24 24 25 26 27 27 27 26 26 25 25 25 25 25 25 24 24 24 24 23 23 23 23 24 24 24 23 23 23 23 22 21 22 23 23 23 22 22 22 22 21 21 21 21 21 21
35 34 34 34 33 31 30 29 29 28 27 27 27 26 25 25 24 24 24 24 25 26 27 27 26 26 26 26 25 25 25 25 25 25 24 24 24 23 24 24 24 24 24 24 23 23 23 23 22 22 22 23 23 22 22 22 22 22 22 21 21 21 21
35 35 34 34 33 32 30 30 29 29 28 28 27 26 26 25 25 25 24 24 25 25 26 26 26 26 26 26 26 25 25 25 25 25 25 24 24 24 24 24 24 24 24 24 24 24 24 24 23 22 22 22 23 22 22 22 22 22 22 22 21 21 21
35 34 34 33 33 32 31 31 30 29 29 28 28 27 26 26 26 25 25 25 25 25 25 26 27 27 27 27 26 26 26 26 25 25 25 25 25 24 24 24 25 25 25 25 25 24 24 24 24 23 23 22 22 22 22 22 22 22 22 22 22 22 21
35 34 34 34 33 33 32 31 31 30 29 29 28 28 27 26 26 26 26 25 25 25 25 25 26 27 27 27 27 26 26 26 26 26 26 25 25 25 25 25 25 25 25 25 25 25 24 24 24 24 23 23 22 22 22 22 23 23 22 22 22 22 22
35 35 34 34 34 34 33 31 31 30 29 29 28 28 28 27 27 26 26 26 26 26 26 26 25 25 26 28 27 27 27 26 26 26 26 26 26 25 25 25 25 25 26 25 25 25 25 24 24 23 23 23 23 23 23 23 23 23 23 22 22 22 22
34 34 33 33 33 34 33 32 31 30 30 29 28 28 28 27 27 27 27 27 26 26 26 26 25 25 25 27 28 27 27 27 27 26 26 26 26 26 26 26 25 25 26 26 25 25 24 24 24 24 24 24 24 23 23 23 23 23 23 23 23 22 22
32 32 32 32 32 32 32 32 31 30 29 29 28 28 28 28 27 27 27 27 27 27 27 26 26 25 25 26 27 27 27 27 27 27 27 27 27 26 26 26 25 24 25 26 26 25 24 24 25 25 24 24 24 24 23 23 23 23 23 23 23 22 22
32 31 31 31 31 31 31 31 31 30 29 29 28 28 28 28 28 28 28 27 27 28 27 27 26 26 25 25 26 27 28 28 28 27 27 27 27 26 26 26 25 24 24 25 25 25 24 24 24 25 25 25 25 24 24 24 23 23 23 23 23 22 23
33 32 31 31 31 30 30 30 30 29 28 28 29 28 28 28 28 28 28 28 28 28 28 27 26 26 25 25 25 26 27 28 28 28 28 27 27 27 26 26 25 24 24 24 24 24 24 23 23 24 25 25 25 24 24 24 23 23 23 23 23 23 22
34 34 33 32 30 30 30 29 29 29 28 28 28 28 28 28 28 28 28 28 28 28 28 28 27 26 26 25 25 26 26 27 27 28 28 27 27 27 27 26 26 25 24 23 23 23 24 23 23 23 24 24 24 24 24 24 23 23 23 23 23 23 22
34 34 34 33 31 30 30 29 29 29 29 28 28 28 28 28 28 28 28 28 27 28 28 28 27 26 26 25 25 26 26 26 26 27 27 27 27 28 28 27 26 25 25 24 23 23 23 23 22 22 22 23 23 24 24 24 24 24 23 23 23 23 23
33 33 34 34 32 31 31 30 30 30 30 30 29 29 28 28 28 28 28 28 28 27 28 28 27 26 26 25 25 25 25 26 26 26 27 27 28 28 28 27 26 26 25 24 23 23 23 23 22 22 21 21 22 23 23 24 24 24 24 24 23 23 23
32 32 33 33 33 32 31 30 30 30 31 31 30 30 29 28 28 28 28 28 28 28 27 28 27 27 26 25 25 25 25 26 26 26 27 27 27 27 27 26 26 25 25 25 24 23 23 23 23 23 22 21 22 22 22 23 24 24 24 24 24 23 23
32 32 32 32 32 32 32 32 31 30 30 30 30 29 29 29 28 28 28 28 28 28 28 27 27 27 26 25 25 25 25 25 26 27 27 27 27 27 26 26 26 26 25 25 24 24 24 24 24 24 23 22 22 22 22 22 23 25 24 24 24 24 23
31 31 32 31 32 32 32 32 31 30 30 30 30 30 30 29 29 28 28 28 28 28 28 27 27 27 26 25 25 25 24 25 26 26 27 27 26 26 26 26 26 26 25 25 24 24 24 24 24 23 23 23 22 22 22 22 22 23 24 24 24 24 24
31 31 32 31 31 30 30 30 29 29 29 29 30 30 30 30 29 28 28 28 28 27 27 27 27 27 26 26 25 25 24 25 25 26 26 26 25 26 26 26 26 26 25 24 23 23 23 23 23 23 23 23 22 22 22 22 22 22 23 24 24 24 24
32 32 32 32 30 29 28 29 29 28 29 29 29 29 30 30 30 29 29 28 28 27 27 27 27 27 27 26 25 25 24 24 25 25 25 25 25 26 26 26 25 25 24 23 22 22 22 22 22 22 22 22 22 22 22 22 21 21 22 23 24 24 24
32 32 31 30 29 28 28 28 27 27 28 29 29 29 29 30 30 30 30 29 28 28 27 27 27 27 27 26 25 25 24 24 24 25 25 25 25 26 26 25 24 24 23 23 22 21 21 22 22 21 21 21 21 22 22 22 21 21 21 22 22 23 23
29 29 28 27 27 27 26 26 26 26 27 28 28 28 28 29 30 30 29 29 28 28 27 27 26 26 26 26 25 24 24 24 24 24 25 25 26 26 25 24 23 23 23 23 22 22 22 22 22 22 22 21 21 22 22 22 22 21 21 21 21 22 23
26 26 26 26 26 25 25 25 26 26 27 28 27 27 27 28 29 29 29 29 28 28 27 27 26 26 26 26 25 24 24 24 24 24 25 25 25 24 24 23 23 23 23 23 23 22 22 22 22 22 22 22 22 21 22 22 22 21 21 21 21 21 21
24 24 24 25 25 24 24 25 25 25 26 26 26 26 26 26 27 28 28 28 28 28 27 27 26 26 25 25 25 24 24 24 24 24 24 24 24 24 24 24 23 23 23 23 23 22 22 22 22 22 22 22 22 22 22 22 22 21 22 22 21 20 20
23 23 24 24 23 23 24 24 24 23 24 25 25 26 26 26 26 26 27 27 27 28 28 27 26 25 25 25 25 24 24 24 24 24 24 24 24 24 24 24 23 23 23 23 22 22 22 22 22 22 22 22 22 22 22 22 22 22 22 22 22 21 20
22 22 23 23 22 22 22 23 23 22 23 23 24 25 25 25 25 25 26 26 26 27 27 27 26 25 25 25 24 24 24 24 24 24 24 24 24 24 23 23 23 22 22 22 22 22 22 22 22 22 22 22 22 22 22 22 22 22 22 22 22 21 20
21 21 22 22 22 21 21 21 21 21 22 22 22 23 24 25 25 25 25 25 25 25 26 26 26 25 24 24 24 24 24 24 23 24 24 24 23 23 23 23 22 22 22 22 22 22 22 22 22 22 22 22 22 22 22 22 22 22 22 22 22 21 21
21 21 21 22 22 21 20 20 20 20 21 21 21 23 24 24 24 24 24 24 24 24 25 26 25 25 24 24 24 24 24 24 23 23 23 23 23 23 23 23 23 22 22 22 22 22 22 22 22 22 22 22 22 23 23 23 22 22 22 22 22 21 21
20 20 20 21 21 20 20 21 20 20 20 20 20 22 23 23 23 23 23 23 23 23 24 24 24 24 23 23 23 23 23 24 23 22 22 22 22 22 22 22 22 22 22 22 22 22 22 22 22 22 22 22 22 23 23 23 23 23 22 22 22 22 21
19 19 20 20 20 20 20 21 20 20 20 20 20 21 22 22 22 21 21 22 22 22 23 23 23 23 23 23 23 23 23 23 23 22 22 22 22 22 22 22 22 22 22 22 22 22 22 22 22 22 22 22 22 22 23 23 23 23 23 22 22 22 22
19 19 19 19 19 19 19 20 20 19 19 19 19 20 20 21 21 20 20 21 21 21 22 22 22 22 22 22 22 22 22 22 22 22 22 22 22 22 22 22 22 22 22 22 22 22 22 22 22 22 22 22 22 22 22 22 22 22 22 22 22 22 22
19 19 19 19 18 18 19 19 19 19 19 19 19 19 19 19 20 20 20 20 20 21 22 22 22 22 22 22 22 22 22 22 22 22 22 22 22 22 22 22 22 22 22 22 22 22 22 22 22 22 22 22 22 22 22 22 22 22 22 22 22 21 21
18 18 18 18 18 18 18 18 18 19 19 18 18 18 19 19 19 20 20 20 20 21 21 21 21 22 22 22 22 22 22 22 22 22 22 23 23 23 23 23 23 23 23 23 22 22 22 23 23 22 22 22 22 22 22 22 22 22 22 22 22 21 21
17 18 18 18 18 18 18 18 18 18 18 18 18 19 19 19 19 20 20 20 20 21 21 21 21 21 22 22 22 22 22 22 23 22 22 23 23 23 23 23 23 23 23 23 23 22 22 22 22 22 22 22 22 22 22 22 22 22 21 21 21 21 21
17 18 18 18 18 18 18 18 18 18 18 18 19 19 20 20 20 20 20 20 20 20 21 21 21 22 22 22 22 22 22 22 22 22 22 22 22 23 23 23 23 23 22 22 22 22 21 21 21 21 22 22 22 22 22 22 21 21 21 21 21 21 21
16 17 17 18 18 18 18 18 18 18 18 18 18 19 19 19 20 20 20 20 20 20 20 21 21 21 21 21 21 21 21 21 21 21 21 21 21 21 21 22 22 21 21 21 22 23 22 22 22 21 21 21 21 21 21 21 21 21 21 21 21 21 21
Height
1437 1437 1439 1443 1445 1448 1450 1453 1457 1461 1464 1466 1468 1471 1474 1477 1481 1484 1486 1488 1492 1496 1499 1503 1506 1509 1512 1514 1518 1521 1523 1526 1528 1530 1533 1535 1537 1540 1541 1543 1544 1545 1547 1549 1550 1551 1553 1555 1556 1557 1558 1559 1561 1562 1563 1564 1565 1566 1567 1568 1569 1570 1571
1432 1433 1435 1440 1443 1445 1447 1449 1453 1457 1460 1463 1465 1468 1471 1473 1476 1478 1481 1484 1487 1491 1495 1499 1502 1505 1508 1511 1514 1517 1519 1522 1525 1527 1529 1531 1534 1536 1538 1540 1541 1542 1544 1546 1548 1549 1550 1552 1553 1555 1555 1556 1558 1560 1561 1562 1563 1564 1565 1566 1567 1568 1569
1427 1430 1431 1437 1441 1442 1443 1446 1449 1452 1455 1458 1461 1464 1466 1468 1470 1472 1476 1479 1483 1487 1491 1494 1498 1501 1504 1507 1510 1513 1516 1518 1521 1523 1525 1527 1530 1532 1534 1536 1537 1539 1541 1542 1545 1547 1548 1549 1550 1552 1553 1554 1555 1557 1559 1559 1561 1562 1563 1564 1565 1566 1567
1421 1424 1426 1433 1437 1439 1440 1442 1445 1448 1451 1453 1455 1458 1461 1464 1467 1470 1472 1475 1478 1482 1485 1489 1493 1497 1500 1503 1506 1509 1511 1514 1517 1519 1522 1524 1526 1529 1531 1532 1534 1536 1537 1539 1541 1544 1545 1546 1547 1548 1550 1551 1553 1554 1556 1557 1558 1559 1560 1562 1563 1564 1565
1414 1418 1422 1428 1433 1437 1437 1438 1441 1443 1446 1449 1451 1455 1458 1462 1466 1468 1470 1472 1475 1478 1481 1485 1489 1492 1496 1499 1502 1504 1507 1510 1513 1515 1518 1520 1523 1525 1526 1528 1530 1532 1534 1536 1538 1540 1542 1543 1544 1545 1547 1548 1550 1551 1553 1554 1555 1556 1558 1559 1560 1561 1562
1407 1413 1418 1422 1428 1433 1434 1434 1436 1438 1442 1445 1449 1453 1456 1460 1462 1465 1468 1470 1472 1475 1478 1482 1485 1488 1491 1494 1497 1499 1502 1505 1508 1511 1514 1516 1519 1520 1522 1524 1526 1528 1530 1532 1535 1536 1538 1540 1541 1543 1544 1546 1547 1549 1550 1551 1553 1554 1555 1556 1557 1559 1560
1405 1411 1416 1420 1424 1429 1430 1430 1432 1435 1439 1444 1448 1451 1453 1455 1458 1461 1464 1466 1469 1471 1474 1477 1480 1483 1486 1489 1492 1495 1498 1501 1504 1507 1510 1512 1514 1516 1518 1520 1522 1524 1527 1529 1531 1533 1534 1536 1538 1539 1541 1543 1544 1546 1547 1548 1550 1551 1552 1553 1555 1556 1557
1403 1408 1414 1418 1423 1426 1428 1428 1430 1434 1438 1441 1444 1446 1449 1451 1454 1457 1459 1462 1465 1468 1470 1472 1475 1477 1480 1484 1488 1490 1493 1497 1500 1503 1506 1508 1510 1512 1514 1516 1518 1521 1523 1525 1527 1529 1531 1532 1534 1536 1538 1540 1541 1543 1545 1546 1547 1549 1550 1551 1552 1553 1555
1401 1405 1410 1415 1419 1423 1426 1428 1430 1432 1435 1438 1441 1443 1446 1448 1450 1452 1455 1458 1461 1463 1465 1468 1471 1473 1475 1479 1482 1486 1489 1493 1496 1499 1501 1504 1506 1508 1510 1512 1515 1517 1518 1521 1523 1525 1527 1529 1530 1532 1534 1536 1538 1539 1541 1543 1544 1545 1547 1547 1549 1550 1552
1398 1402 1407 1411 1415 1418 1422 1426 1428 1429 1432 1434 1437 1440 1442 1445 1447 1449 1452 1455 1457 1459 1461 1465 1468 1471 1472 1474 1478 1481 1485 1488 1491 1494 1496 1499 1501 1503 1506 1508 1511 1512 1514 1516 1519 1521 1523 1525 1527 1529 1530 1532 1534 1535 1537 1539 1540 1541 1543 1544 1546 1547 1549
1398 1402 1407 1412 1415 1416 1418 1422 1423 1425 1428 1430 1433 1436 1439 1441 1444 1447 1449 1451 1453 1456 1459 1463 1466 1468 1469 1471 1474 1478 1480 1482 1485 1488 1490 1493 1496 1498 1501 1504 1506 1508 1509 1512 1515 1517 1519 1521 1523 1524 1526 1527 1530 1531 1533 1534 1536 1537 1539 1541 1542 1543 1545
1402 1405 1409 1412 1414 1415 1416 1418 1420 1422 1424 1427 1430 1433 1436 1439 1441 1444 1446 1448 1451 1454 1457 1460 1463 1465 1466 1468 1471 1473 1475 1478 1480 1483 1485 1488 1491 1494 1497 1500 1502 1504 1505 1507 1510 1513 1515 1516 1518 1520 1521 1523 1525 1527 1529 1530 1532 1533 1535 1537 1538 1539 1541
1405 1406 1409 1411 1412 1414 1415 1416 1419 1421 1423 1426 1429 1431 1434 1436 1438 1441 1443 1445 1448 1451 1454 1456 1458 1461 1462 1464 1466 1469 1470 1473 1476 1479 1482 1484 1487 1491 1493 1496 1498 1500 1502 1504 1505 1508 1510 1512 1513 1515 1517 1519 1521 1523 1525 1526 1528 1529 1531 1533 1535 1536 1537
1404 1405 1408 1409 1411 1412 1414 1415 1417 1420 1422 1424 1427 1429 1431 1433 1436 1438 1440 1442 1445 1448 1450 1453 1455 1457 1459 1460 1462 1464 1466 1469 1472 1475 1478 1481 1484 1487 1489 1491 1494 1497 1499 1501 1501 1503 1506 1508 1509 1511 1513 1515 1516 1519 1521 1522 1524 1525 1527 1529 1531 1532 1533
1403 1402 1404 1408 1410 1411 1412 1414 1416 1418 1421 1422 1425 1427 1429 1431 1433 1435 1438 1440 1442 1444 1447 1449 1451 1453 1455 1457 1458 1459 1462 1465 1468 1471 1474 1478 1480 1482 1485 1487 1490 1493 1496 1497 1498 1500 1502 1505 1506 1507 1509 1511 1512 1514 1516 1517 1519 1520 1521 1524 1526 1528 1529
1403 1401 1401 1406 1410 1411 1411 1413 1415 1417 1419 1420 1422 1425 1426 1429 1430 1432 1435 1437 1439 1441 1443 1445 1447 1449 1451 1453 1453 1456 1459 1462 1465 1467 1470 1473 1475 1478 1480 1483 1486 1489 1491 1493 1495 1496 1498 1501 1504 1505 1505 1507 1508 1510 1511 1512 1512 1514 1516 1518 1521 1524 1526
1403 1403 1403 1405 1409 1410 1410 1413 1414 1416 1417 1418 1420 1422 1423 1425 1427 1429 1431 1433 1435 1437 1440 1442 1443 1445 1447 1448 1450 1453 1455 1457 1460 1463 1465 1468 1471 1473 1476 1479 1481 1484 1486 1489 1491 1493 1494 1497 1499 1501 1502 1503 1504 1505 1506 1506 1507 1508 1511 1513 1516 1518 1521
1404 1406 1406 1406 1408 1409 1410 1412 1413 1414 1416 1417 1418 1419 1421 1423 1424 1426 1427 1429 1431 1434 1437 1438 1439 1441 1443 1445 1448 1450 1451 1453 1455 1458 1460 1463 1466 1469 1471 1474 1477 1479 1481 1483 1486 1488 1490 1492 1493 1495 1498 1499 1499 1500 1500 1501 1502 1503 1505 1508 1511 1513 1516
1404 1405 1406 1407 1408 1409 1409 1410 1411 1413 1415 1416 1417 1418 1419 1420 1421 1422 1424 1427 1429 1431 1432 1434 1435 1437 1439 1441 1444 1445 1446 1448 1450 1453 1455 1458 1461 1464 1467 1469 1471 1473 1475 1477 1480 1483 1485 1486 1487 1489 1492 1493 1494 1495 1496 1496 1497 1498 1500 1502 1505 1508 1511
1403 1404 1405 1407 1407 1408 1408 1409 1411 1413 1414 1415 1416 1416 1417 1418 1418 1420 1422 1424 1426 1427 1428 1430 1432 1434 1435 1437 1439 1441 1442 1444 1446 1448 1451 1454 1457 1460 1462 1464 1465 1467 1470 1473 1475 1477 1479 1480 1482 1484 1486 1488 1489 1491 1491 1492 1492 1493 1495 1497 1500 1503 1505
1401 1402 1403 1404 1405 1406 1407 1408 1410 1411 1412 1412 1413 1414 1415 1416 1416 1418 1419 1420 1422 1423 1425 1427 1429 1431 1432 1433 1435 1437 1439 1440 1442 1445 1448 1450 1453 1455 1457 1458 1460 1463 1466 1469 1471 1472 1474 1476 1478 1479 1481 1482 1484 1486 1486 1487 1488 1489 1489 1491 1494 1498 1501
1399 1400 1400 1401 1403 1405 1405 1406 1407 1408 1409 1409 1410 1411 1412 1413 1414 1416 1416 1417 1418 1420 1422 1424 1426 1427 1429 1429 1430 1433 1434 1436 1439 1441 1444 1446 1448 1450 1452 1454 1456 1459 1462 1465 1468 1469 1470 1472 1474 1475 1477 1477 1479 1481 1481 1482 1484 1484 1485 1486 1489 1493 1495
1396 1397 1398 1400 1402 1403 1403 1404 1404 1405 1405 1406 1407 1408 1409 1410 1412 1413 1414 1415 1416 1417 1419 1420 1421 1422 1424 1425 1427 1430 1432 1434 1435 1437 1440 1442 1443 1445 1447 1450 1453 1456 1458 1461 1463 1465 1466 1467 1469 1471 1472 1473 1473 1474 1475 1476 1478 1479 1480 1481 1483 1486 1489
1396 1397 1398 1400 1401 1402 1402 1402 1402 1403 1403 1404 1405 1406 1406 1408 1409 1410 1411 1412 1413 1414 1415 1416 1416 1418 1420 1423 1425 1427 1429 1431 1432 1435 1437 1438 1439 1441 1444 1447 1449 1452 1454 1456 1458 1460 1462 1463 1465 1465 1466 1467 1467 1468 1469 1471 1473 1474 1475 1477 1478 1480 1482
1397 1398 1399 1400 1401 1401 1401 1400 1400 1400 1401 1402 1402 1403 1403 1404 1405 1407 1408 1409 1410 1411 1411 1411 1413 1415 1418 1420 1422 1424 1426 1428 1430 1432 1433 1435 1437 1440 1442 1444 1446 1448 1450 1452 1454 1456 1458 1460 1461 1461 1461 1462 1463 1464 1465 1466 1467 1469 1470 1471 1473 1474 1476
1399 1399 1400 1401 1401 1400 1399 1399 1399 1399 1400 1401 1400 1400 1401 1402 1402 1404 1405 1406 1407 1408 1408 1409 1411 1414 1416 1419 1420 1422 1423 1425 1427 1428 1430 1432 1435 1437 1439 1441 1443 1445 1446 1448 1450 1452 1453 1455 1456 1457 1458 1459 1460 1460 1460 1461 1462 1463 1464 1465 1467 1468 1471
1400 1400 1400 1401 1400 1398 1399 1400 1399 1398 1399 1399 1398 1398 1399 1399 1400 1401 1403 1404 1405 1406 1408 1409 1411 1413 1414 1416 1418 1420 1420 1422 1424 1425 1428 1430 1432 1435 1436 1438 1440 1441 1442 1444 1447 1448 1449 1451 1452 1454 1454 1455 1456 1456 1456 1456 1457 1458 1459 1460 1461 1462 1465
1400 1400 1400 1400 1399 1398 1399 1399 1398 1398 1398 1397 1397 1397 1397 1398 1398 1399 1400 1402 1403 1405 1408 1410 1410 1411 1412 1413 1415 1417 1418 1420 1421 1423 1425 1427 1429 1431 1433 1435 1437 1438 1440 1442 1444 1445 1446 1447 1448 1450 1451 1452 1452 1452 1452 1452 1453 1454 1454 1455 1456 1457 1458
1400 1400 1400 1400 1400 1399 1398 1398 1397 1397 1396 1396 1396 1396 1396 1397 1397 1398 1399 1400 1402 1404 1407 1408 1409 1410 1411 1412 1413 1415 1417 1418 1419 1420 1422 1424 1426 1428 1430 1432 1434 1436 1437 1439 1441 1442 1443 1444 1445 1446 1447 1447 1448 1448 1449 1449 1450 1450 1450 1450 1452 1453 1453
1399 1400 1399 1400 1400 1398 1397 1397 1397 1396 1396 1395 1394 1394 1395 1396 1396 1397 1398 1399 1399 1401 1404 1406 1408 1408 1409 1410 1411 1413 1415 1417 1417 1419 1420 1422 1424 1425 1427 1429 1431 1433 1434 1436 1438 1439 1440 1441 1442 1442 1443 1443 1444 1444 1446 1447 1447 1448 1447 1447 1448 1448 1449
1399 1399 1399 1400 1399 1398 1398 1398 1397 1396 1396 1394 1393 1393 1394 1395 1396 1397 1398 1397 1397 1399 1402 1404 1405 1406 1407 1409 1410 1411 1413 1415 1416 1417 1419 1420 1422 1423 1425 1427 1429 1430 1432 1433 1435 1436 1437 1438 1439 1439 1439 1440 1441 1441 1443 1444 1444 1445 1444 1443 1443 1443 1443
1398 1398 1398 1399 1398 1398 1398 1398 1397 1396 1396 1395 1394 1394 1394 1394 1395 1396 1396 1396 1398 1399 1400 1402 1403 1405 1406 1407 1409 1410 1412 1413 1415 1416 1418 1419 1420 1422 1424 1425 1427 1428 1430 1431 1432 1433 1434 1435 1437 1437 1437 1438 1438 1438 1439 1440 1441 1441 1441 1439 1438 1438 1438
1398 1398 1398 1398 1398 1397 1397 1397 1397 1397 1396 1395 1395 1395 1394 1395 1395 1395 1396 1397 1398 1399 1400 1401 1402 1403 1405 1406 1407 1409 1410 1412 1413 1415 1416 1418 1419 1421 1422 1423 1425 1426 1427 1428 1430 1431 1432 1433 1434 1434 1435 1435 1435 1436 1436 1437 1437 1437 1437 1436 1434 1434 1435
1398 1398 1398 1397 1397 1397 1397 1397 1397 1397 1396 1396 1395 1395 1395 1396 1396 1397 1397 1397 1398 1398 1399 1400 1401 1403 1404 1405 1406 1407 1409 1410 1412 1414 1415 1417 1418 1419 1421 1422 1423 1424 1425 1426 1427 1428 1429 1430 1431 1431 1432 1433 1433 1433 1433 1433 1433 1434 1434 1433 1431 1431 1431
1398 1398 1398 1397 1397 1397 1397 1397 1397 1397 1397 1396 1395 1396 1396 1396 1397 1397 1397 1397 1398 1398 1399 1400 1401 1402 1403 1404 1406 1407 1408 1409 1411 1412 1414 1416 1417 1418 1419 1420 1422 1423 1424 1425 1425 1426 1427 1427 1428 1429 1430 1430 1430 1431 1430 1431 1431 1431 1432 1432 1430 1428 1427
1398 1398 1398 1397 1397 1397 1397 1397 1397 1397 1397 1397 1396 1397 1397 1397 1397 1398 1398 1398 1398 1399 1399 1400 1401 1402 1403 1404 1405 1406 1407 1409 1410 1412 1413 1415 1416 1417 1418 1419 1419 1420 1422 1423 1423 1423 1424 1425 1425 1426 1426 1426 1427 1427 1427 1427 1427 1428 1428 1428 1426 1425 1423
1399 1398 1398 1398 1398 1397 1398 1398 1398 1397 1397 1397 1398 1398 1398 1398 1399 1399 1399 1399 1399 1399 1400 1401 1402 1403 1403 1403 1404 1405 1406 1407 1409 1410 1411 1413 1414 1415 1416 1417 1418 1418 1419 1420 1420 1420 1420 1421 1421 1422 1423 1423 1423 1423 1423 1423 1423 1423 1423 1422 1421 1420 1419
1399 1398 1399 1398 1398 1398 1398 1398 1398 1398 1398 1398 1398 1398 1398 1399 1399 1400 1400 1400 1400 1400 1401 1402 1403 1404 1404 1403 1403 1404 1405 1406 1406 1408 1410 1411 1412 1413 1414 1415 1416 1416 1416 1417 1417 1417 1418 1418 1419 1419 1420 1420 1419 1418 1418 1418 1418 1418 1417 1416 1415 1414 1413
Wind_Speed
23 24 25 26 28 30 32 34 35 35 37 38 40 41 41 41 40 40 41 44 44 44 44 43 43 44 44 44 43 41 40 40 39 39 38 38 37 35 34 32 31 31 29 27 27 27 27 25 23 23 23 22 20 20 20 20 18 17 16 15 15 15 15
26 24 23 23 25 30 32 33 35 36 37 38 38 39 41 42 43 42 43 45 46 45 45 45 44 44 44 44 43 42 41 40 40 40 39 38 38 37 36 35 33 33 33 29 26 25 26 27 26 25 26 24 21 20 20 21 19 19 17 17 17 17 17
27 24 22 22 26 30 32 33 35 37 37 38 38 39 41 44 46 47 46 47 47 46 46 46 45 45 45 44 44 43 43 41 41 41 40 40 39 39 38 37 36 35 34 33 29 26 25 27 28 27 26 26 24 21 21 21 20 20 19 18 18 18 19
28 27 25 26 29 31 31 33 35 36 37 38 40 42 43 44 45 47 48 48 47 47 47 46 46 46 46 45 45 44 43 43 42 42 41 41 40 39 39 38 38 37 36 35 34 30 27 26 27 28 27 27 26 24 23 23 22 21 21 20 20 19 20
30 29 26 25 26 26 29 33 35 36 37 38 40 41 41 42 42 43 46 48 47 47 46 46 47 47 47 47 46 46 45 44 43 43 42 41 40 40 40 40 39 39 38 36 35 33 31 29 28 29 29 28 27 27 26 25 24 24 23 22 22 21 21
28 28 26 25 23 24 29 33 35 36 37 36 37 38 38 39 41 41 43 46 46 46 46 46 47 48 48 48 48 47 46 45 45 44 43 43 42 41 41 41 40 39 38 37 36 35 34 33 31 30 30 29 28 27 27 27 27 26 25 24 24 23 22
24 25 23 22 24 28 31 32 33 34 34 33 33 35 36 38 41 41 41 44 46 46 46 47 47 48 48 49 49 49 48 47 46 45 44 44 43 43 43 41 40 40 38 37 37 36 35 35 34 32 31 30 29 28 28 28 28 28 27 27 26 25 24
23 25 24 24 24 25 26 27 29 30 30 30 32 34 36 37 39 40 41 42 44 44 45 46 47 48 48 49 49 50 49 48 47 46 45 45 44 45 44 42 42 41 40 39 38 37 37 36 35 34 32 31 30 29 29 29 30 29 29 29 28 27 26
23 26 27 26 26 24 22 23 25 27 29 30 31 33 35 36 37 40 41 40 41 42 45 45 46 47 49 49 49 50 49 49 48 47 46 46 46 46 46 44 43 42 41 41 40 38 38 38 36 35 34 33 32 31 31 31 31 30 30 30 30 29 28
20 24 23 21 21 20 21 22 22 25 28 30 31 32 34 35 36 37 39 39 40 42 43 43 42 44 47 49 49 49 50 49 49 49 48 48 48 47 47 45 43 43 43 42 41 40 39 38 38 37 36 35 34 34 34 34 34 33 32 32 31 31 30
11 13 15 14 15 15 18 21 23 27 30 32 33 32 33 35 34 35 37 38 39 39 40 40 39 40 44 48 49 49 50 50 50 51 50 50 49 48 47 46 44 44 45 44 43 41 40 40 40 39 39 38 37 37 37 37 36 36 35 34 33 32 32
12 8 8 11 14 14 17 20 22 27 30 31 31 30 31 33 33 33 34 36 37 36 36 38 38 38 40 45 47 49 50 51 51 52 51 51 50 49 47 46 45 43 44 45 44 42 42 42 42 41 41 41 40 39 39 39 39 38 37 36 35 35 33
8 7 7 9 12 13 15 18 20 24 26 26 27 28 29 31 31 32 33 34 35 34 35 37 38 38 39 41 44 47 49 50 50 51 51 51 50 49 48 47 44 41 40 42 44 43 42 42 43 43 43 43 42 41 41 41 41 41 40 39 37 37 37
6 10 11 10 11 12 14 16 18 20 21 22 24 26 27 28 30 31 32 33 33 33 34 35 37 38 39 39 42 45 48 48 48 49 49 49 49 48 48 48 44 40 38 39 41 43 41 40 42 43 43 43 43 43 43 42 42 42 42 42 40 40 39
2 7 13 12 10 10 12 15 17 18 20 21 23 24 25 26 28 29 30 31 32 33 33 34 36 38 38 39 42 46 47 46 46 47 47 47 47 47 48 47 45 41 39 39 40 41 40 38 37 38 41 42 42 42 43 43 44 45 45 44 43 42 41
4 4 6 10 10 9 9 12 15 16 18 19 21 23 25 25 26 28 29 29 31 33 33 33 36 38 38 39 42 46 45 43 44 46 47 47 46 47 47 46 45 44 42 40 38 38 39 37 34 33 35 39 41 42 43 44 45 45 46 46 45 45 44
4 5 2 3 6 7 8 10 11 11 12 14 16 20 23 25 26 26 27 29 30 32 32 33 35 37 39 40 41 42 44 44 45 45 46 46 46 46 47 46 46 45 44 43 40 38 38 38 36 34 32 34 38 39 41 44 45 45 46 46 45 45 45
6 5 5 3 2 3 7 10 10 9 9 10 11 14 18 22 25 26 27 28 29 29 31 33 34 36 39 39 38 40 43 46 47 46 46 47 45 46 46 46 47 46 46 46 45 43 41 41 41 39 36 34 35 36 37 39 43 44 45 46 46 45 45
7 6 5 4 5 6 6 7 8 8 8 8 10 12 14 17 22 26 27 26 27 28 30 33 34 35 37 38 38 40 43 45 46 46 47 47 46 45 45 45 46 46 47 47 46 45 45 45 45 44 41 39 38 37 36 37 40 42 43 44 45 45 45
9 8 7 6 6 8 6 4 4 5 7 8 9 10 12 15 20 23 23 24 27 29 31 33 33 34 37 39 39 40 42 44 45 45 45 45 45 45 45 45 45 45 45 45 45 45 46 46 46 45 44 43 41 39 40 39 39 41 42 43 44 44 45
11 10 9 8 6 5 4 3 4 6 8 8 9 9 10 12 16 19 21 23 27 30 32 33 34 34 36 39 40 41 42 44 44 43 43 43 44 44 44 44 44 44 44 43 42 43 44 45 45 44 44 45 42 41 41 39 38 40 42 42 42 43 43
15 13 11 8 7 6 7 10 12 12 12 11 10 10 10 11 13 16 19 22 25 29 32 33 35 36 36 39 42 43 43 44 44 43 43 42 42 43 43 43 43 43 43 41 38 37 39 40 40 39 40 42 42 40 39 37 37 39 41 42 42 41 42
15 12 8 7 7 8 11 14 14 13 14 14 13 11 11 12 12 15 19 21 24 27 30 33 36 38 38 39 40 41 41 42 43 43 43 42 42 43 43 43 43 42 42 41 37 34 35 36 34 32 33 37 40 40 39 37 36 38 40 41 41 41 42
9 6 7 8 9 11 11 10 11 12 14 15 15 14 13 13 13 15 19 22 24 26 29 33 36 39 40 38 37 37 38 40 42 42 42 42 42 42 41 41 41 40 40 41 38 35 33 33 33 33 34 36 39 40 40 38 37 38 41 41 41 43 43
11 10 9 9 10 10 11 14 17 17 16 15 14 13 13 14 15 16 19 22 24 25 29 33 34 35 37 37 35 36 37 38 39 40 41 41 41 40 39 39 39 39 38 39 38 37 34 32 33 35 36 36 37 38 40 39 37 38 40 41 42 44 44
11 11 11 11 10 12 15 17 17 14 10 9 10 9 9 11 14 16 19 21 23 25 27 30 30 29 30 32 32 33 36 36 36 37 38 39 38 38 37 37 37 37 37 36 35 35 34 33 33 33 34 34 35 36 39 40 38 38 39 39 41 43 44
11 11 11 11 12 15 14 12 10 9 8 9 13 12 10 10 11 14 17 19 22 23 23 23 25 26 26 29 30 30 32 34 34 35 35 35 35 35 35 35 35 35 35 33 31 31 31 32 32 31 31 32 32 33 36 38 39 40 41 40 39 41 44
11 11 11 11 12 12 10 8 7 8 7 8 9 9 9 9 10 11 14 17 18 19 17 17 20 24 25 27 28 27 27 29 31 33 33 33 32 32 32 32 30 30 31 29 28 28 29 30 30 29 29 30 31 32 34 36 37 39 41 41 40 40 43
11 10 10 9 10 9 8 8 8 8 7 7 6 4 3 6 10 11 11 13 13 13 14 15 17 20 23 25 26 26 25 26 27 30 30 30 30 30 30 29 28 27 28 28 27 27 28 28 29 29 28 29 30 31 32 33 35 36 38 40 40 41 44
10 9 8 8 8 9 8 8 7 6 6 7 8 8 5 3 7 9 8 10 13 13 13 14 15 17 19 21 23 23 23 22 23 25 26 26 27 27 27 27 27 26 27 28 27 26 27 28 29 28 28 29 29 29 30 32 33 35 37 39 40 41 43
10 9 9 8 8 8 7 5 6 5 5 6 6 7 8 7 5 6 9 13 15 14 13 12 13 14 15 16 18 19 20 19 19 20 20 20 21 23 23 24 24 25 25 25 24 24 25 26 28 28 27 28 29 29 29 30 31 33 36 38 40 41 43
11 9 8 7 7 6 5 4 4 4 3 4 5 2 7 8 6 5 8 10 9 11 14 13 11 12 13 13 13 15 17 17 17 17 18 17 18 19 20 20 21 22 22 22 22 23 23 23 25 27 28 28 29 28 27 28 30 32 34 38 40 42 44
9 8 7 7 6 5 3 3 3 3 2 2 4 3 1 3 3 2 3 4 4 8 14 14 11 11 11 11 11 12 14 15 15 15 16 16 16 17 17 17 18 19 20 21 21 22 23 23 24 25 26 28 28 27 27 28 30 30 31 34 39 41 43
8 7 6 5 4 3 2 1 1 1 1 2 2 4 4 3 3 2 1 2 2 4 8 10 9 9 9 9 9 9 10 12 13 14 14 14 15 15 15 16 17 17 19 19 20 20 21 22 23 23 24 26 26 26 27 28 29 29 29 31 36 39 40
7 6 4 3 2 2 1 2 2 2 2 3 4 5 5 5 4 4 3 2 2 3 3 5 7 7 7 7 7 7 8 9 10 12 12 12 13 14 15 16 16 16 16 16 17 19 20 21 22 23 24 24 25 25 26 27 28 29 29 30 34 38 40
4 4 3 1 1 1 1 2 3 3 3 4 6 7 7 6 6 6 5 5 5 5 4 5 6 7 7 7 7 7 7 7 7 9 9 9 11 12 13 15 16 17 18 16 15 17 20 22 23 24 25 26 26 27 27 28 29 30 30 31 34 37 40
1 2 2 3 2 2 3 4 4 4 4 6 7 7 7 7 8 7 6 6 6 6 6 7 7 6 6 8 10 10 9 8 8 8 9 8 9 10 11 11 11 12 16 19 19 20 22 23 26 27 28 29 31 32 32 32 32 32 32 32 34 35 37
3 4 4 5 5 6 7 7 6 5 6 7 8 8 8 8 8 8 7 7 7 7 7 7 6 6 5 6 10 12 11 10 10 10 9 8 7 8 9 8 6 6 9 14 17 19 21 23 25 27 29 32 35 37 38 39 39 40 40 41 41 42 42
Wind_Direction
216 216 202 196 194 194 195 194 193 193 193 192 191 190 190 191 191 192 200 211 216 217 219 220 220 222 223 224 224 225 225 225 225 226 227 228 230 229 229 230 232 236 233 229 232 237 237 233 224 225 236 241 235 233 236 236 232 231 232 228 223 221 221
204 213 200 196 200 197 195 193 191 192 193 193 193 192 191 192 192 194 201 211 216 218 218 220 221 222 224 224 224 224 225 224 225 226 226 227 229 230 231 231 233 237 238 233 229 232 238 238 234 231 236 242 239 232 234 235 230 230 231 229 223 220 222
194 209 199 197 208 203 194 192 191 192 193 192 193 194 193 194 197 200 205 211 215 217 219 220 220 222 223 224 224 225 225 225 225 226 226 227 229 230 232 233 234 237 239 239 233 229 233 237 239 238 236 241 241 235 233 233 229 228 229 229 224 221 222
191 203 200 197 206 203 192 191 192 192 194 194 194 196 196 196 198 202 207 212 216 217 218 219 220 221 222 223 224 225 225 225 225 226 227 228 230 231 232 234 235 237 238 240 239 233 230 232 237 240 238 238 240 238 235 233 231 229 227 226 224 221 222
191 196 197 197 203 203 194 191 193 193 195 197 196 196 196 195 196 200 206 212 217 219 219 219 219 220 221 222 224 225 225 224 225 226 227 228 229 231 233 233 235 237 237 238 240 238 234 232 234 238 240 238 238 239 237 235 234 233 229 225 223 221 222
189 191 197 198 200 206 202 194 194 195 195 196 197 195 195 195 196 199 204 210 215 218 220 221 220 221 221 221 223 224 225 225 225 226 227 229 230 231 233 234 235 237 237 237 238 239 239 237 235 236 239 239 237 234 235 236 236 235 232 227 223 221 221
185 186 197 204 203 205 204 197 194 196 195 194 196 195 194 196 198 199 202 207 212 216 218 220 221 222 223 222 223 224 225 225 226 226 227 229 231 232 234 235 236 237 237 237 238 238 240 240 237 237 237 238 237 232 231 234 236 235 234 230 226 223 221
186 182 191 204 208 205 203 200 195 193 193 193 194 196 196 197 198 198 200 205 208 211 214 217 220 222 223 223 223 224 225 226 226 227 228 229 231 234 235 235 236 237 238 238 238 237 238 240 239 238 237 236 236 234 231 233 236 236 235 233 230 227 222
187 185 190 199 205 202 202 205 197 190 191 193 195 197 197 198 199 200 201 202 204 207 211 214 216 220 223 223 223 224 225 226 227 228 229 230 231 234 235 236 236 238 239 238 238 237 237 238 239 239 238 236 235 235 233 233 235 236 236 236 235 231 226
185 183 185 196 205 198 192 196 194 189 190 193 196 198 198 199 201 201 201 201 203 206 209 210 209 214 221 224 224 224 224 225 226 228 229 230 231 233 235 236 236 238 240 239 238 237 237 238 238 239 240 238 235 235 235 234 235 235 235 236 236 234 231
139 152 165 186 206 201 188 189 190 188 191 195 197 198 199 201 201 202 202 203 204 205 206 206 204 206 216 224 225 224 225 225 225 227 229 230 231 233 235 235 235 237 240 241 239 238 237 238 238 238 240 239 236 234 235 234 234 235 234 235 236 235 233
90 114 157 182 197 197 191 191 190 189 193 197 197 198 200 202 202 204 205 205 206 205 203 204 204 203 210 221 224 224 226 227 226 227 228 230 231 232 234 234 233 233 237 242 242 239 237 237 239 240 239 240 238 235 235 235 235 235 234 234 235 235 234
110 131 154 176 187 191 193 192 190 190 193 195 196 199 201 202 203 204 205 206 207 206 204 203 204 202 206 214 220 223 226 228 228 228 229 230 231 231 233 233 230 227 230 237 242 241 237 235 239 241 241 241 241 239 237 236 236 236 236 234 234 236 236
142 147 152 162 177 186 193 194 191 190 192 194 197 200 201 203 205 205 206 206 205 206 206 205 204 203 204 208 215 221 225 227 229 230 230 231 232 232 232 233 230 224 223 229 236 239 237 234 235 240 242 242 242 242 240 239 237 237 237 235 234 235 237
169 170 157 153 168 183 189 194 193 192 194 195 197 200 201 204 206 207 208 207 205 205 206 206 205 204 203 205 213 222 225 224 226 229 229 229 230 232 233 232 230 226 223 225 230 235 236 233 230 235 240 242 242 243 242 241 239 238 237 236 235 234 235
271 246 154 144 161 176 182 192 195 194 197 199 198 200 202 204 206 207 207 208 207 207 206 205 205 205 204 205 213 222 224 222 224 228 229 228 228 231 234 232 230 229 226 224 225 229 234 232 225 225 233 239 241 242 243 243 241 239 238 237 236 235 234
281 305 328 138 165 178 180 185 190 193 200 205 205 203 204 206 207 207 207 207 208 207 205 205 206 206 207 208 212 217 221 224 226 228 231 232 231 231 233 233 231 230 228 226 224 224 229 231 227 223 223 230 237 240 242 243 243 241 240 239 238 237 236
291 293 290 285 255 216 191 191 204 216 218 220 218 214 213 211 208 207 208 208 207 206 205 206 206 207 208 208 210 214 220 226 229 230 233 236 235 234 234 233 233 232 231 231 229 228 229 232 234 232 225 224 231 236 237 241 244 244 242 241 239 238 237
290 288 286 286 284 270 236 215 219 220 220 224 224 225 226 220 213 211 210 208 206 205 206 207 207 208 209 209 210 214 219 225 230 231 233 236 236 236 235 235 235 235 234 234 233 231 233 235 237 237 234 229 229 232 234 238 244 245 244 242 241 240 238
295 293 298 304 290 277 272 267 252 245 254 258 250 245 238 226 219 216 211 208 207 207 207 207 207 208 210 212 212 214 218 224 229 231 233 235 235 235 236 237 238 238 237 236 234 233 234 236 236 238 238 236 232 231 234 237 241 245 246 244 242 241 240
295 294 291 292 301 309 306 298 288 280 279 275 267 262 251 235 225 218 211 209 208 208 208 208 208 209 212 215 215 214 217 224 228 230 231 233 234 235 236 237 239 239 237 233 232 233 235 235 236 237 238 238 235 232 235 237 237 240 245 245 242 240 240
282 283 287 294 315 327 307 293 295 293 284 278 273 267 258 247 233 220 215 211 209 208 209 209 209 209 212 217 218 217 219 223 227 229 230 231 233 234 236 237 237 237 235 231 227 227 231 232 233 234 235 237 238 235 235 234 232 234 240 243 243 240 238
278 276 300 325 322 313 306 304 304 300 291 288 286 274 259 251 240 228 219 213 211 209 208 209 212 212 212 216 219 219 218 221 226 229 230 231 233 235 235 235 235 235 234 233 226 221 224 228 228 227 227 231 234 235 235 232 229 231 235 239 242 241 237
333 338 358 346 326 324 321 306 296 294 295 294 289 276 261 250 240 230 222 214 211 210 207 209 212 214 214 214 217 218 218 221 226 229 231 233 235 235 234 233 234 234 235 235 230 223 222 224 226 227 227 228 231 235 237 236 231 230 233 236 238 240 238
359 358 349 334 330 326 306 293 296 300 303 303 296 280 264 250 235 224 220 215 211 209 210 211 211 213 213 213 214 219 221 224 228 231 234 235 235 234 234 233 234 235 237 237 235 231 227 223 224 227 230 231 232 233 238 240 235 232 234 234 234 237 239
345 338 332 331 322 301 294 301 309 312 315 306 282 260 254 251 235 222 218 214 211 211 213 213 211 210 212 211 212 218 224 226 229 230 232 234 235 234 235 236 236 236 237 237 234 232 229 226 225 227 229 231 231 232 237 239 235 232 235 236 235 235 237
334 327 323 323 311 302 306 316 315 311 311 290 268 258 255 246 230 222 218 213 213 214 215 214 212 209 210 210 210 215 222 226 227 229 231 236 239 239 237 237 235 234 234 231 227 226 226 225 225 227 229 230 229 229 232 235 234 235 239 242 240 236 235
323 318 315 316 315 316 322 322 314 313 315 305 294 291 279 252 229 218 216 214 215 217 216 215 213 210 209 210 210 211 216 221 225 231 235 238 239 237 234 232 229 227 227 224 221 222 224 223 224 227 228 230 231 230 231 234 236 237 241 244 241 237 236
319 315 312 312 314 319 321 315 313 312 309 304 290 271 268 252 229 212 208 212 213 214 215 214 213 211 210 210 210 210 212 216 221 228 233 234 233 232 232 231 226 221 221 221 220 220 223 224 225 227 229 231 232 233 234 235 236 237 241 245 243 240 239
318 316 314 310 310 318 320 318 321 323 324 315 275 233 196 197 218 204 193 201 203 201 206 212 212 210 209 209 209 209 210 211 215 220 224 228 229 230 231 232 228 223 223 224 222 221 224 228 228 230 233 235 236 237 238 239 239 239 242 246 247 246 244
312 311 311 307 306 316 319 318 327 331 336 339 303 238 189 155 153 172 187 201 201 191 187 194 200 200 200 203 205 206 206 207 209 211 214 217 220 223 224 225 223 220 220 223 224 225 227 230 232 234 237 238 239 240 240 241 243 243 244 246 248 250 249
305 306 307 304 302 311 312 300 309 325 334 354 354 270 195 174 151 165 196 207 207 195 188 184 186 191 193 196 200 202 202 202 205 209 211 211 213 216 218 218 218 219 220 222 225 228 230 232 235 238 240 242 245 245 244 243 244 244 245 247 249 250 251
298 299 302 300 297 299 293 272 280 313 347 20 34 39 144 175 148 152 202 206 211 209 203 198 195 194 194 194 195 198 199 199 202 206 210 211 212 213 215 215 216 218 220 221 224 228 232 235 237 239 241 243 247 249 248 247 247 245 244 247 250 251 251
295 294 294 297 304 300 272 243 265 312 54 72 74 73 81 99 106 102 153 187 192 201 203 200 192 186 186 186 186 190 195 198 201 203 207 213 215 214 215 215 216 219 222 222 224 226 230 235 238 241 243 245 248 251 251 250 250 249 247 249 253 254 254
288 278 277 287 316 307 237 188 162 156 134 97 88 91 86 81 85 90 83 77 90 111 151 172 168 164 167 170 172 181 187 191 199 204 206 212 217 218 218 219 219 222 226 230 231 231 232 236 240 243 246 248 250 252 255 255 254 254 254 255 258 260 261
273 250 240 245 290 305 189 154 140 144 134 97 85 83 78 72 71 74 76 85 96 102 109 122 130 135 146 156 163 172 174 177 193 205 206 210 217 223 227 227 223 220 222 226 230 233 234 237 240 243 246 248 248 249 252 254 255 255 255 256 257 260 263
195 162 148 144 138 129 131 129 124 117 108 102 99 93 86 81 76 70 71 84 99 107 110 116 125 135 149 167 173 168 159 157 173 187 192 199 209 216 226 236 239 236 233 230 229 231 234 236 238 242 245 247 249 249 249 251 253 254 254 254 255 256 259
155 132 127 125 119 115 114 111 108 105 100 102 108 103 93 88 85 80 75 76 90 105 109 109 115 121 128 158 176 175 168 167 175 180 180 186 199 206 213 224 244 263 257 246 239 239 242 245 246 248 249 250 253 255 255 255 255 255 255 256 256 256 257